#timestamp,LO_Frequency,Hit,StdDev 
1549519215.3,286046999.8,N
1549519235.1,286047002.2,N
1549519255.9,286047002.1,N
1549519275.7,286047002.3,N
1549519295.5,286047001.4,N
1549519315.4,286047004.0,N
1549519335.2,286047005.8,N
1549519355.0,286047004.6,N
1549519355.9,286047004.6,N
1549519375.8,286047005.4,N
1549519395.6,286047003.2,N
1549519415.5,286047001.6,N
1549519435.3,286047001.9,N
1549519455.1,286047003.9,N
1549519475.9,286047001.6,N
1549519495.7,286047001.6,N
1549519515.5,286047001.9,N
1549519535.4,286047001.7,N
1549519555.2,286047002.6,N
1549519575.1,286047002.4,N
1549519576.0,286047002.4,N
1549519595.8,286047000.7,N
1549519615.6,286046998.2,N
1549519635.5,286047001.2,N
1549519655.3,286046999.1,N
1549519675.1,286047011.9,Y
1549519695.9,286046999.5,P
1549519715.7,286046996.9,N
1549519735.6,286046997.8,N
1549519755.4,286046996.6,N
1549519775.2,286046996.9,N
1549519795.1,286046996.5,N
1549519796.0,286046996.5,N
1549519815.8,286046999.1,N
1549519835.6,286046997.0,N
1549519855.5,286046999.4,N
1549519875.3,286046999.5,N
1549519895.2,286046998.6,N
1549519915.9,286046996.9,N
1549519935.7,286046996.9,N
1549519955.6,286046996.6,N
1549519975.4,286046999.3,N
1549519995.2,286046997.3,N
1549520015.1,286046999.6,N
1549520016.0,286046999.6,N
1549520035.8,286046997.3,N
1549520055.7,286046994.9,Y
1549520075.5,286047000.9,P
1549520095.3,286046999.9,N
1549520115.2,286046998.6,N
1549520135.0,286047001.2,N
1549520135.9,286047001.2,N
1549520155.7,286047000.3,N
1549520175.6,286046998.2,N
1549520195.4,286046998.1,N
1549520215.3,286046999.8,N
1549520235.1,286046999.8,N
1549520236.0,286046999.8,N
1549520255.8,286047001.2,N
1549520275.7,286046999.8,N
1549520295.5,286047001.1,N
1549520315.3,286046998.6,N
1549520335.2,286046998.2,N
1549520355.0,286046999.4,N
1549520355.9,286046999.4,N
1549520375.8,286046996.6,Y
1549520395.6,286046999.6,P
1549520415.4,286046996.9,P
1549520435.3,286046996.9,N
1549520455.1,286046996.7,N
1549520475.8,286046996.8,N
1549520495.7,286046997.7,N
1549520515.5,286046997.3,N
1549520535.4,286046997.6,N
1549520555.2,286046995.6,Y
1549520575.0,286046998.8,P
1549520575.9,286046998.8,N
1549520595.8,286046996.5,P
1549520615.6,286046996.5,Y
1549520635.5,286047000.9,P
1549520655.3,286046999.7,N
1549520675.1,286047000.0,N
1549520695.9,286047000.4,N
1549520715.7,286047000.1,N
1549520735.5,286047000.0,N
1549520755.4,286047000.6,N
1549520775.2,286046998.1,N
1549520795.1,286047000.6,N
1549520796.0,286047000.6,N
1549520815.8,286046999.8,N
1549520835.6,286046999.9,N
1549520855.5,286046999.9,N
1549520875.3,286047001.1,N
1549520895.1,286047000.9,N
1549520915.9,286047000.9,N
1549520935.7,286046999.9,N
1549520955.5,286046999.9,N
1549520975.4,286047002.8,Y
1549520995.2,286047002.3,P
1549521015.1,286047000.1,N
1549521016.0,286047000.1,N
1549521035.8,286047001.1,N
1549521055.6,286046998.8,N
1549521075.5,286046998.1,N
1549521095.3,286047002.1,N
1549521115.2,286047002.6,N
1549521135.9,286047002.2,N
1549521155.7,286047002.5,N
1549521175.6,286047000.0,N
1549521195.4,286046998.5,N
1549521215.2,286046998.3,N
1549521235.1,286047001.1,N
1549521236.0,286047001.1,N
1549521255.8,286046998.8,N
1549521275.7,286047000.8,N
1549521295.5,286047000.0,N
1549521315.3,286046998.2,N
1549521335.2,286047001.1,N
1549521355.9,286046998.2,N
1549521375.7,286046998.4,N
1549521395.6,286046999.0,N
1549521415.4,286047000.7,N
1549521435.2,286047001.0,N
1549521455.1,286047000.4,N
1549521456.0,286047000.4,N
1549521475.8,286047002.8,N
1549521495.7,286047002.2,N
1549521515.5,286047002.2,N
1549521535.3,286047004.3,N
1549521555.2,286047002.3,N
1549521575.0,286047002.5,N
1549521575.9,286047002.5,N
1549521595.7,286047001.5,N
1549521615.6,286047001.5,N
1549521635.4,286047001.5,N
1549521655.3,286047002.4,N
1549521675.1,286046999.7,N
1549521676.0,286046999.7,N
1549521695.8,286047002.4,N
1549521715.7,286046999.9,N
1549521735.5,286047002.5,N
1549521755.3,286047001.6,N
1549521775.2,286047001.6,N
1549521795.0,286047003.8,N
1549521795.9,286047003.8,N
1549521815.8,286047004.2,N
1549521835.6,286047005.9,Y
1549521855.4,286047004.3,P
1549521875.3,286047002.1,N
1549521895.1,286047001.8,N
1549521915.9,286047004.2,Y
1549521935.7,286047000.6,P
1549521955.5,286047000.9,N
1549521975.4,286047000.2,N
1549521995.2,286047001.6,N
1549522015.0,286047001.8,N
1549522015.9,286047001.8,N
1549522035.8,286047002.1,N
1549522055.6,286047001.8,N
1549522075.5,286047001.3,N
1549522095.3,286047004.0,Y
1549522115.1,286047001.6,P
1549522135.9,286047004.0,P
1549522155.7,286047004.4,P
1549522175.5,286047001.5,N
1549522195.4,286047001.7,N
1549522215.2,286047002.8,N
1549522235.1,286047000.3,N
1549522236.0,286047000.3,N
1549522255.8,286046998.8,N
1549522275.6,286046998.2,N
1549522295.5,286046998.5,N
1549522315.3,286047000.9,N
1549522335.1,286047000.5,N
1549522355.9,286046998.1,N
1549522375.7,286047001.1,N
1549522395.6,286046998.4,N
1549522415.4,286046998.9,N
1549522435.2,286046999.2,N
1549522455.1,286047000.7,N
1549522456.0,286047000.7,N
1549522475.8,286046998.4,N
1549522495.6,286046998.1,N
1549522515.5,286046998.8,N
1549522535.3,286046996.5,N
1549522555.2,286046996.5,N
1549522575.9,286046996.6,N
1549522595.7,286046998.8,N
1549522615.6,286046998.2,N
1549522635.4,286046997.0,N
1549522655.2,286046999.3,N
1549522675.1,286046996.5,N
1549522676.0,286046996.5,N
1549522695.8,286046996.6,N
1549522715.7,286046997.3,N
1549522735.5,286046995.1,N
1549522755.3,286046995.4,N
1549522775.2,286046995.0,Y
1549522795.0,286046999.1,P
1549522795.9,286046999.1,N
